Regional Weather Roundup
Issued by NWS San Diego, CA

Home | Current Version | Previous Version | Text Only | Print | Product List | Glossary On
Versions: 1 2 3 4 5 6 7 8 9 10 11 12 13 14 15 16 17 18 19 20 21 22 23 24 25 26 27 28 29 30 31 32 33 34 35 36 37 38 39 40 41 42 43 44 45 46 47 48 49 50
000
ASUS46 KSGX 061211
RWRSGX

SAN DIEGO HOURLY WEATHER ROUNDUP
NATIONAL WEATHER SERVICE SAN DIEGO CA
400 AM PST FRI MAR 06 2015

NOTE: "FAIR" INDICATES FEW OR NO CLOUDS BELOW 12,000 FEET WITH NO
SIGNIFICANT WEATHER AND/OR OBSTRUCTIONS TO VISIBILITY.

CAZ042-043-060-061-PZZ750-775-061300-

GREATER SAN DIEGO AREA

CITY           SKY/WX    TMP DP  RH WIND       PRES   REMARKS
LINDBERGH FLD  CLEAR     53  32  44 N5        30.12F
NATIONAL CITY    N/A     48  35  59 CALM      30.11F
CHULA VISTA      N/A     47  36  65 E3        30.04F
IMPERIAL BEACH CLEAR     49  36  61 E9        30.11F
BROWN FIELD    CLEAR     43  31  62 SE8       30.11F
MIRAMAR MCAS   CLEAR     48  30  49 E9        30.10F
MONTGOMERY FLD CLEAR     49  33  54 CALM      30.11F

$$

NORTH SAN DIEGO COUNTY

CITY           SKY/WX    TMP DP  RH WIND       PRES   REMARKS
CAMP PENDLETON CLEAR     35  29  78 CALM      30.12F
OCEANSIDE AP   CLEAR     38  33  82 NE5       30.11F WCI  34
OCEANSIDE HBR    N/A     45  36  70 E9        30.14F
VISTA            N/A     45  34  65 CALM      30.11F
CARLSBAD       CLEAR     51  32  48 E5        30.10F
DEL MAR          N/A     52  37  56 CALM      30.13F
LA JOLLA SCRIP   N/A     55  36  49 CALM      30.08F
FALLBROOK        N/A     54  22  29 CALM      30.12F
SAN MARCOS       N/A    N/A N/A N/A CALM      30.09F
POWAY            N/A     41  32  72 CALM      30.14F

$$

EAST SAN DIEGO COUNTY

CITY           SKY/WX    TMP DP  RH WIND       PRES   REMARKS
RAMONA         CLEAR     36  27  69 CALM      30.12F
SANTEE LAKES     N/A     41  33  75 CALM      30.14F
LA MESA          N/A     51  28  40 E8        30.06F
JAMUL            N/A     42  27  54 CALM      30.11F
DESCANSO N       N/A     57  11  16 E12       30.00F
MT. LAGUNA OBS   N/A     43   6  21 NE8       29.77F
CAMPO            N/A     57   9  14 NE18G28   30.08F

$$

ORANGE COUNTY AND THE LOS ANGELES BASIN

CITY           SKY/WX    TMP DP  RH WIND       PRES   REMARKS
JOHN WAYNE AP  CLEAR     52  34  50 CALM      30.11S
LAKE FOREST FR   N/A     64   6  10 NE10      30.00R
SANTA ANA        N/A     46  34  63 CALM      30.07S
HUNTINGTON BCH   N/A     51  33  51 N3        30.13S
LOS ALAMITOS   FAIR      49  33  54 CALM      30.11S
FULLERTON      CLEAR     49  30  48 CALM      30.11S
LONG BEACH     CLEAR     52  29  41 NW6       30.12S
L.A. AP        CLEAR     52  27  38 CALM      30.13S
L.A. DOWNTOWN  CLEAR     51  30  44 CALM      30.13S

$$

THE INLAND EMPIRE

CITY           SKY/WX    TMP DP  RH WIND       PRES   REMARKS
CORONA         CLEAR     44  30  58 CALM      30.14S
CHINO          CLEAR     45  31  58 CALM      30.15S
ONTARIO        CLEAR     47  26  44 NW9       30.13S
RIVERSIDE AP   CLEAR     47  27  45 E5        30.14F
RIV CYN CREST    N/A     60  31  33 NE2         N/A
MORENO VALLEY    N/A     56  24  28 CALM      29.36S
MARCH ARB      CLEAR     37  22  56 CALM      30.15S
HORSETHIEF CYN   N/A     52  17  24 SW9       30.14S
PERRIS           N/A     55  23  28 CALM        N/A
MENIFEE          N/A     40  33  77 CALM      30.25S
HEMET EAST       N/A     50   8  17 CALM      30.15F
FRENCH VALLEY  FAIR      37  28  70 NW5       30.15F WCI  34
TEMECULA         N/A     42  33  70 E1        30.12S

$$

SAN BERNARDINO AND RIVERSIDE COUNTY MOUNTAINS

CITY           SKY/WX    TMP DP  RH WIND       PRES   REMARKS
BIG BEAR AP    CLEAR     19   9  63 CALM      30.33S
ANGELUS OAKS     N/A     37  10  33 SE1       30.18R
PINE COVE        N/A     44  -6  12 N1        30.17F

$$

SOUTHERN DESERT INCLUDING THE COACHELLA VALLEY

CITY           SKY/WX    TMP DP  RH WIND       PRES   REMARKS
PALM SPRINGS   CLEAR     61  16  17 W6        30.18S
THOUSAND PALMS   N/A     53  26  35 W1        30.14F
PALM DESERT      N/A     49  33  53 CALM      30.23S
THERMAL        CLEAR     55  23  28 N7        30.13S
BLYTHE         CLEAR     50  33  52 E7        30.16S
IMPERIAL AP    CLEAR     47  33  58 CALM      30.11S
EL CENTRO NAS  CLEAR     49  30  48 W13       30.11F
YUMA AZ        CLEAR     60  25  26 N12       30.09S

$$

UPPER DESERT

CITY           SKY/WX    TMP DP  RH WIND       PRES   REMARKS
VICTORVILLE AP   N/A     34  16  47 S7        30.27F WCI  28
HESPERIA         N/A     37  19  48 W2        30.44S
APPLE VALLEY     N/A     29  20  67 CALM      30.32S
PALMDALE       CLEAR     32  21  64 CALM      30.28S
LANCASTER      CLEAR     30  20  66 W5        30.29S WCI  25
EDWARDS AFB    CLEAR     30  20  65 SW6       30.27R WCI  24
DAGGETT        CLEAR     45  17  32 W13       30.26F
29 PALMS N     CLEAR     44  21  40 NW8       30.31S
NEEDLES        CLEAR     56  26  31 N10       30.21S

$$

REGIONAL REPORTS

CITY           SKY/WX    TMP DP  RH WIND       PRES   REMARKS
SANTA BARBARA  CLEAR     44  34  67 CALM      30.14F
SANDBERG       CLEAR     46  14  27 NE14      30.28F
MT. WILSON       N/A     45 -11   9 NE5         N/A
LAS VEGAS NV   CLEAR     45  31  58 SW8       30.25S
PHOENIX AZ     CLEAR     54  25  32 E3        30.14S
TIJUANA        CLEAR     45  32  61 CALM      30.14F
ENSENADA NW      N/A     58  32  36 N2        30.07F

$$

OFFSHORE ISLANDS

CITY           SKY/WX    TMP DP  RH WIND       PRES   REMARKS
CATALINA ARPT  CLEAR     58  14  17 NE8       30.15F
SAN NICOLAS IS CLEAR    N/A N/A N/A NW13      30.13F

$$

MARINE AND OFFSHORE BUOY REPORTS

STATION/POSITION SKY/WX   TEMP    WIND        PRES    SWELL
                          AIR SEA DIR/SP/G            HT/PER/DIR
                          (F)     (DEG/KT/KT) (MB)    (FT/S/D)
TANNER BANKS               61 61  330/ 14/ 16 1019.7F   3/200/15
S CLEMENTE BASIN           62 62  340/ 10/ 12 1019.2F   3/230/13
SAN NICOLAS IS.               60                N/A     3/180/14
SO. S. ROSA ISLA           59 59  320/ 12/ 14 1020.2F   5/14
W. S. BARBARA CH           59 59  300/  6/  8 1020.5F   3/240/15
S. MONICA BASIN            62 61  350/ 12/ 14 1020.2F
S PEDRO CHANNEL               61                N/A     2/170/15
DANA POINT                    61                N/A     3/190/14
CMP PENDLETON NS              62                N/A     3/220/14
OCEANSIDE OFFSHR              61                N/A     2/200/13
TORREY PINES OTR              62                N/A     2/190/15
LA JOLLA 1                 58 63  120/  5/  8 1019.9F
MISSION BAY BUOY              62                N/A     2/220/13
SAN DIEGO BAY                 65              1020.4F
POINT LOMA SOUTH              63                N/A     3/190/15

$$



USA.gov is the U.S. government's official web portal to all federal, state and local government web resources and services.